This is the latest recevied weather packets stored in our database for station/object DH5WR-10. If no packets are shown the sender has not sent any weather packets the latest 10 day(s).
| Time | Temp. | Humidity | Pressure | Rain* | Wind** | Luminosity | Snow |
|---|---|---|---|---|---|---|---|
| 1777902743 | 21.11° C | 40% | 1013.8 hPa | - | - | - | - |
| 1777901843 | 21.11° C | 38% | 1013.9 hPa | - | - | - | - |
| 1777900943 | 21.67° C | 38% | 1014.1 hPa | - | - | - | - |
| 1777900043 | 21.11° C | 40% | 1014.2 hPa | - | - | - | - |
| 1777899143 | 21.11° C | 39% | 1014.3 hPa | - | - | - | - |
| 1777898243 | 21.11° C | 40% | 1014.4 hPa | - | - | - | - |
| 1777897343 | 21.11° C | 40% | 1014.4 hPa | - | - | - | - |
| 1777896442 | 21.11° C | 39% | 1014.6 hPa | - | - | - | - |
| 1777895542 | 21.11° C | 40% | 1014.7 hPa | - | - | - | - |
| 1777894642 | 21.11° C | 39% | 1014.8 hPa | - | - | - | - |
| 1777893742 | 21.67° C | 37% | 1014.8 hPa | - | - | - | - |
| 1777892842 | 20.56° C | 40% | 1014.9 hPa | - | - | - | - |
| 1777891942 | 21.11° C | 38% | 1015 hPa | - | - | - | - |
| 1777891041 | 20° C | 39% | 1015.2 hPa | - | - | - | - |
| 1777890141 | 21.67° C | 37% | 1015.4 hPa | - | - | - | - |
| 1777889241 | 20° C | 38% | 1015.5 hPa | - | - | - | - |
| 1777888341 | 20° C | 38% | 1015.6 hPa | - | - | - | - |
| 1777887441 | 20.56° C | 38% | 1015.7 hPa | - | - | - | - |
| 1777886540 | 19.44° C | 39% | 1015.8 hPa | - | - | - | - |
| 1777885640 | 20° C | 42% | 1016 hPa | - | - | - | - |
| 1777884740 | 20.56° C | 39% | 1016 hPa | - | - | - | - |
| 1777883840 | 19.44° C | 38% | 1016.3 hPa | - | - | - | - |
| 1777882940 | 19.44° C | 39% | 1016.4 hPa | - | - | - | - |
| 1777882040 | 19.44° C | 40% | 1016.4 hPa | - | - | - | - |
| 1777881140 | 18.89° C | 41% | 1016.5 hPa | - | - | - | - |
* Rain since midnight (hover to see other rain measurements)
** Current wind speed in m/s (hover to see current wind gust speed)